Simultaneous Nadir Overpasses (SNOs) Predictions

Prediction of SNOs between GOES-16 and NOAA-20 Satellite Orbit:

Table of predicted SNOs for the next 14.0 days since TLE Epoch: 2/19/2022
Index Date Time (GOES-16) GOES-16 Lat,Lon NOAA-20 Lat,Lon Distance(km) Time Diff (sec)
1 02/19/2022 06:23:10 -0.07, -75.21 -0.15, -74.90 35.96 80
2 02/21/2022 18:26:25 0.07, -75.22 -0.02, -75.68 51.86 80
3 02/22/2022 18:10:21 0.07, -75.23 0.99, -71.15 464.58 80
4 02/24/2022 06:32:11 -0.06, -75.22 0.19, -76.42 136.40 80
5 02/25/2022 06:10:47 -0.06, -75.23 -0.82, -71.90 379.92 80
6 02/26/2022 18:32:44 0.05, -75.23 -0.41, -77.19 223.90 80
7 02/27/2022 18:16:41 0.05, -75.24 0.61, -72.67 292.96 80
8 03/01/2022 06:38:30 -0.04, -75.25 0.58, -77.94 306.63 80
9 03/02/2022 06:17:07 -0.04, -75.26 -0.44, -73.41 210.60 80
10 03/03/2022 18:39:05 0.03, -75.28 -0.73, -78.72 391.74 80
11 03/04/2022 18:23:02 0.04, -75.30 0.29, -74.20 126.20 80
